QPF
0.00 0.00 0.00 0.00 0.00 0.00 0.00 0.00 0.00 0.00 0.00 0.00 0.00 0.00 0.00 0.01 0.01 0.00 0.01 0.00 0.01 0.02 0.02 0.01 0.01 0.03 0.04 0.05 0.04 0.04 0.06 0.06 0.06 0.08 0.10 0.08 0.06 0.06 0.06 0.06 0.07 0.06 0.08
0.00 0.00 0.00 0.00 0.00 0.00 0.00 0.00 0.00 0.00 0.00 0.00 0.00 0.00 0.00 0.00 0.01 0.01 0.01 0.01 0.01 0.01 0.01 0.01 0.01 0.01 0.02 0.03 0.03 0.03 0.04 0.05 0.07 0.07 0.09 0.08 0.06 0.05 0.04 0.05 0.05 0.04 0.06
0.00 0.00 0.00 0.00 0.00 0.00 0.00 0.00 0.00 0.00 0.00 0.00 0.00 0.00 0.00 0.00 0.00 0.01 0.01 0.01 0.01 0.01 0.01 0.01 0.01 0.01 0.01 0.02 0.01 0.01 0.02 0.03 0.06 0.07 0.09 0.07 0.06 0.05 0.04 0.04 0.05 0.05 0.04
0.00 0.00 0.00 0.00 0.00 0.00 0.00 0.00 0.00 0.00 0.00 0.00 0.00 0.00 0.00 0.01 0.00 0.00 0.01 0.01 0.01 0.00 0.01 0.01 0.01 0.01 0.01 0.02 0.02 0.01 0.01 0.01 0.04 0.07 0.07 0.06 0.06 0.06 0.05 0.04 0.05 0.06 0.06
0.00 0.00 0.00 0.00 0.00 0.00 0.00 0.00 0.00 0.00 0.00 0.00 0.00 0.00 0.01 0.01 0.00 0.01 0.01 0.01 0.01 0.01 0.01 0.01 0.01 0.02 0.03 0.02 0.01 0.01 0.01 0.01 0.03 0.06 0.08 0.08 0.06 0.05 0.05 0.04 0.04 0.05 0.05
0.00 0.00 0.00 0.00 0.00 0.00 0.00 0.00 0.00 0.00 0.00 0.00 0.01 0.01 0.01 0.01 0.01 0.01 0.01 0.01 0.01 0.01 0.01 0.01 0.01 0.01 0.02 0.01 0.01 0.01 0.01 0.01 0.03 0.05 0.05 0.07 0.07 0.05 0.05 0.04 0.05 0.06 0.05
0.00 0.00 0.00 0.00 0.00 0.00 0.00 0.00 0.00 0.00 0.00 0.00 0.00 0.01 0.01 0.01 0.01 0.01 0.01 0.01 0.02 0.01 0.01 0.01 0.00 0.01 0.01 0.01 0.01 0.02 0.02 0.02 0.01 0.03 0.04 0.05 0.06 0.05 0.05 0.04 0.04 0.06 0.07
0.00 0.00 0.00 0.00 0.00 0.00 0.00 0.00 0.00 0.00 0.00 0.00 0.00 0.00 0.01 0.01 0.01 0.01 0.01 0.01 0.01 0.00 0.00 0.01 0.01 0.01 0.01 0.01 0.01 0.03 0.03 0.02 0.01 0.02 0.02 0.03 0.03 0.03 0.05 0.06 0.05 0.04 0.06
0.00 0.00 0.00 0.00 0.00 0.00 0.00 0.00 0.00 0.00 0.00 0.00 0.00 0.00 0.00 0.01 0.01 0.01 0.01 0.02 0.02 0.02 0.02 0.02 0.02 0.01 0.01 0.01 0.02 0.03 0.03 0.03 0.03 0.03 0.02 0.01 0.02 0.02 0.03 0.04 0.05 0.04 0.03
0.00 0.00 0.00 0.00 0.00 0.00 0.00 0.00 0.00 0.00 0.00 0.00 0.00 0.00 0.00 0.00 0.01 0.01 0.01 0.02 0.03 0.03 0.03 0.04 0.05 0.04 0.02 0.02 0.02 0.03 0.02 0.03 0.04 0.03 0.03 0.02 0.02 0.03 0.03 0.04 0.04 0.04 0.04
0.00 0.00 0.00 0.00 0.00 0.00 0.00 0.00 0.00 0.00 0.00 0.00 0.00 0.00 0.00 0.00 0.00 0.00 0.00 0.00 0.01 0.02 0.01 0.01 0.02 0.02 0.02 0.02 0.02 0.02 0.03 0.04 0.03 0.04 0.03 0.02 0.02 0.04 0.05 0.05 0.04 0.03 0.03
0.00 0.00 0.00 0.00 0.00 0.00 0.00 0.00 0.00 0.00 0.00 0.00 0.00 0.00 0.00 0.00 0.00 0.00 0.00 0.00 0.00 0.00 0.01 0.01 0.01 0.01 0.02 0.02 0.03 0.03 0.03 0.03 0.02 0.01 0.01 0.02 0.03 0.05 0.06 0.05 0.04 0.03 0.03
0.00 0.00 0.00 0.00 0.00 0.00 0.00 0.00 0.00 0.00 0.00 0.00 0.00 0.00 0.00 0.00 0.00 0.00 0.00 0.00 0.00 0.00 0.00 0.01 0.01 0.02 0.02 0.03 0.03 0.03 0.03 0.02 0.02 0.01 0.02 0.03 0.04 0.04 0.05 0.04 0.03 0.02 0.03
0.00 0.00 0.00 0.00 0.00 0.00 0.00 0.00 0.00 0.00 0.00 0.00 0.00 0.00 0.00 0.00 0.00 0.00 0.00 0.00 0.00 0.00 0.00 0.00 0.01 0.01 0.01 0.02 0.03 0.02 0.02 0.01 0.01 0.01 0.02 0.02 0.02 0.03 0.03 0.03 0.04 0.03 0.03
0.00 0.00 0.00 0.00 0.00 0.00 0.00 0.00 0.00 0.00 0.00 0.00 0.00 0.00 0.00 0.00 0.00 0.00 0.00 0.00 0.00 0.00 0.00 0.00 0.00 0.00 0.00 0.01 0.01 0.01 0.02 0.01 0.01 0.03 0.02 0.03 0.03 0.04 0.04 0.04 0.03 0.04 0.04
0.00 0.00 0.00 0.00 0.00 0.00 0.00 0.00 0.00 0.00 0.00 0.00 0.00 0.00 0.00 0.00 0.00 0.00 0.00 0.00 0.00 0.00 0.00 0.00 0.00 0.00 0.00 0.00 0.00 0.01 0.01 0.01 0.01 0.02 0.02 0.01 0.02 0.03 0.04 0.03 0.03 0.03 0.03
0.00 0.00 0.00 0.00 0.00 0.00 0.00 0.00 0.00 0.00 0.00 0.00 0.00 0.00 0.00 0.00 0.00 0.00 0.00 0.00 0.00 0.00 0.00 0.00 0.00 0.00 0.00 0.00 0.00 0.00 0.00 0.00 0.00 0.01 0.01 0.01 0.01 0.02 0.03 0.04 0.05 0.04 0.02
0.00 0.00 0.00 0.00 0.00 0.00 0.00 0.00 0.00 0.00 0.00 0.00 0.00 0.00 0.00 0.00 0.00 0.00 0.00 0.00 0.00 0.00 0.00 0.00 0.00 0.00 0.00 0.00 0.00 0.00 0.00 0.00 0.01 0.01 0.01 0.01 0.01 0.01 0.02 0.02 0.02 0.02 0.01
0.00 0.00 0.00 0.00 0.00 0.00 0.00 0.00 0.00 0.00 0.00 0.00 0.00 0.00 0.00 0.00 0.00 0.00 0.00 0.00 0.00 0.00 0.00 0.00 0.00 0.00 0.00 0.00 0.00 0.00 0.00 0.00 0.00 0.01 0.01 0.01 0.01 0.01 0.02 0.01 0.01 0.01 0.01
0.00 0.00 0.00 0.00 0.00 0.00 0.00 0.00 0.00 0.00 0.00 0.00 0.00 0.00 0.00 0.00 0.00 0.00 0.00 0.00 0.00 0.00 0.00 0.00 0.00 0.00 0.00 0.00 0.00 0.00 0.00 0.00 0.00 0.00 0.00 0.01 0.02 0.02 0.01 0.00 0.00 0.01 0.01
0.00 0.00 0.00 0.00 0.00 0.00 0.00 0.00 0.00 0.00 0.00 0.00 0.00 0.00 0.00 0.00 0.00 0.00 0.00 0.00 0.00 0.00 0.00 0.00 0.00 0.00 0.00 0.00 0.00 0.00 0.00 0.00 0.00 0.00 0.00 0.00 0.00 0.01 0.03 0.04 0.02 0.02 0.02
0.00 0.00 0.00 0.00 0.00 0.00 0.00 0.00 0.00 0.00 0.00 0.00 0.00 0.00 0.00 0.00 0.00 0.00 0.00 0.00 0.00 0.00 0.00 0.00 0.00 0.00 0.00 0.00 0.00 0.00 0.00 0.00 0.00 0.00 0.00 0.00 0.00 0.00 0.01 0.01 0.02 0.03 0.04
0.00 0.00 0.00 0.00 0.00 0.00 0.00 0.00 0.00 0.00 0.00 0.00 0.00 0.00 0.00 0.00 0.00 0.00 0.00 0.00 0.00 0.00 0.00 0.00 0.00 0.00 0.00 0.00 0.00 0.00 0.00 0.00 0.00 0.00 0.00 0.00 0.00 0.00 0.00 0.00 0.00 0.00 0.01
0.00 0.00 0.00 0.00 0.00 0.00 0.00 0.00 0.00 0.00 0.00 0.00 0.00 0.00 0.00 0.00 0.00 0.00 0.00 0.00 0.00 0.00 0.00 0.00 0.00 0.00 0.00 0.00 0.00 0.00 0.00 0.00 0.00 0.00 0.00 0.00 0.00 0.00 0.00 0.00 0.00 0.00 0.00
0.00 0.00 0.00 0.00 0.00 0.00 0.00 0.00 0.00 0.00 0.00 0.00 0.00 0.00 0.00 0.00 0.00 0.00 0.00 0.00 0.00 0.00 0.00 0.00 0.00 0.00 0.00 0.00 0.00 0.00 0.00 0.00 0.00 0.00 0.00 0.00 0.00 0.00 0.00 0.00 0.00 0.00 0.00
0.00 0.00 0.00 0.00 0.00 0.00 0.00 0.00 0.00 0.00 0.00 0.00 0.00 0.00 0.00 0.00 0.00 0.00 0.00 0.00 0.00 0.00 0.00 0.00 0.00 0.00 0.00 0.00 0.00 0.00 0.00 0.00 0.00 0.00 0.00 0.00 0.00 0.00 0.00 0.00 0.00 0.00 0.00
MSLP
1014.74 1014.93 1015.11 1015.24 1015.31 1015.31 1015.27 1015.21 1015.16 1015.14 1015.16 1015.20 1015.26 1015.29 1015.27 1015.17 1014.99 1014.74 1014.44 1014.13 1013.85 1013.62 1013.44 1013.31 1013.22 1013.13 1013.02 1012.86 1012.66 1012.42 1012.17 1011.93 1011.74 1011.62 1011.57 1011.58 1011.63 1011.68 1011.71 1011.70 1011.65 1011.56 1011.47
1014.83 1015.08 1015.28 1015.39 1015.42 1015.37 1015.27 1015.17 1015.10 1015.10 1015.16 1015.28 1015.40 1015.48 1015.49 1015.40 1015.19 1014.91 1014.57 1014.24 1013.94 1013.72 1013.57 1013.49 1013.44 1013.39 1013.29 1013.13 1012.90 1012.62 1012.31 1012.03 1011.81 1011.67 1011.61 1011.63 1011.68 1011.74 1011.77 1011.74 1011.66 1011.53 1011.39
1014.86 1015.16 1015.39 1015.51 1015.51 1015.41 1015.26 1015.12 1015.05 1015.06 1015.16 1015.32 1015.50 1015.63 1015.67 1015.59 1015.38 1015.07 1014.71 1014.36 1014.06 1013.84 1013.72 1013.66 1013.65 1013.61 1013.53 1013.36 1013.12 1012.81 1012.48 1012.19 1011.95 1011.81 1011.76 1011.78 1011.85 1011.90 1011.92 1011.87 1011.75 1011.58 1011.39
1014.78 1015.14 1015.41 1015.55 1015.54 1015.41 1015.24 1015.07 1014.98 1015.00 1015.12 1015.32 1015.54 1015.71 1015.79 1015.72 1015.53 1015.22 1014.86 1014.51 1014.21 1014.00 1013.88 1013.84 1013.84 1013.81 1013.73 1013.56 1013.31 1012.99 1012.66 1012.37 1012.14 1012.01 1011.97 1012.00 1012.07 1012.12 1012.12 1012.03 1011.87 1011.66 1011.42
1014.58 1015.01 1015.33 1015.49 1015.50 1015.37 1015.18 1015.00 1014.90 1014.91 1015.04 1015.26 1015.51 1015.72 1015.82 1015.80 1015.63 1015.35 1015.01 1014.66 1014.37 1014.17 1014.06 1014.02 1014.00 1013.97 1013.88 1013.71 1013.45 1013.15 1012.83 1012.55 1012.34 1012.22 1012.20 1012.24 1012.29 1012.33 1012.29 1012.17 1011.97 1011.71 1011.44
1014.27 1014.75 1015.13 1015.34 1015.38 1015.27 1015.09 1014.90 1014.79 1014.80 1014.92 1015.15 1015.41 1015.64 1015.78 1015.79 1015.66 1015.42 1015.11 1014.80 1014.53 1014.34 1014.22 1014.17 1014.14 1014.09 1013.98 1013.80 1013.55 1013.25 1012.95 1012.70 1012.51 1012.41 1012.39 1012.42 1012.46 1012.46 1012.38 1012.22 1011.98 1011.68 1011.37
1013.86 1014.39 1014.83 1015.10 1015.19 1015.12 1014.96 1014.78 1014.66 1014.66 1014.77 1014.98 1015.24 1015.48 1015.64 1015.69 1015.60 1015.42 1015.17 1014.90 1014.65 1014.47 1014.35 1014.27 1014.22 1014.14 1014.01 1013.82 1013.57 1013.29 1013.02 1012.79 1012.62 1012.53 1012.51 1012.52 1012.52 1012.47 1012.35 1012.14 1011.86 1011.53 1011.20
1013.40 1013.97 1014.46 1014.80 1014.95 1014.93 1014.80 1014.64 1014.52 1014.50 1014.59 1014.77 1015.01 1015.25 1015.42 1015.50 1015.47 1015.34 1015.14 1014.92 1014.71 1014.54 1014.42 1014.32 1014.23 1014.12 1013.97 1013.77 1013.52 1013.26 1013.01 1012.80 1012.66 1012.57 1012.53 1012.50 1012.45 1012.35 1012.18 1011.92 1011.60 1011.26 1010.92
1012.93 1013.53 1014.06 1014.45 1014.65 1014.69 1014.60 1014.47 1014.36 1014.32 1014.39 1014.54 1014.75 1014.97 1015.15 1015.26 1015.27 1015.19 1015.05 1014.88 1014.70 1014.55 1014.42 1014.31 1014.19 1014.05 1013.88 1013.66 1013.42 1013.18 1012.95 1012.76 1012.62 1012.52 1012.46 1012.39 1012.29 1012.13 1011.90 1011.60 1011.26 1010.90 1010.56
1012.50 1013.10 1013.65 1014.07 1014.32 1014.41 1014.37 1014.27 1014.17 1014.13 1014.17 1014.30 1014.48 1014.68 1014.85 1014.97 1015.01 1014.99 1014.90 1014.77 1014.64 1014.50 1014.37 1014.24 1014.10 1013.94 1013.75 1013.53 1013.29 1013.06 1012.85 1012.67 1012.54 1012.43 1012.33 1012.21 1012.06 1011.84 1011.56 1011.23 1010.86 1010.50 1010.18
1012.13 1012.70 1013.24 1013.67 1013.95 1014.07 1014.08 1014.01 1013.94 1013.91 1013.94 1014.05 1014.20 1014.38 1014.55 1014.68 1014.75 1014.76 1014.71 1014.64 1014.53 1014.42 1014.29 1014.16 1014.00 1013.82 1013.62 1013.40 1013.17 1012.95 1012.75 1012.58 1012.44 1012.31 1012.18 1012.02 1011.82 1011.55 1011.23 1010.86 1010.49 1010.13 1009.82
1011.82 1012.34 1012.84 1013.25 1013.53 1013.67 1013.71 1013.69 1013.65 1013.64 1013.69 1013.79 1013.93 1014.10 1014.27 1014.40 1014.49 1014.53 1014.53 1014.49 1014.42 1014.32 1014.21 1014.07 1013.91 1013.73 1013.52 1013.30 1013.07 1012.86 1012.67 1012.51 1012.36 1012.22 1012.06 1011.86 1011.61 1011.31 1010.95 1010.56 1010.18 1009.83 1009.53
1011.54 1011.98 1012.42 1012.78 1013.04 1013.20 1013.27 1013.29 1013.30 1013.33 1013.40 1013.51 1013.66 1013.83 1013.99 1014.14 1014.25 1014.32 1014.35 1014.34 1014.30 1014.23 1014.13 1014.00 1013.84 1013.66 1013.44 1013.22 1013.01 1012.80 1012.62 1012.45 1012.30 1012.15 1011.97 1011.74 1011.46 1011.13 1010.75 1010.35 1009.96 1009.60 1009.31
1011.26 1011.61 1011.96 1012.26 1012.49 1012.64 1012.74 1012.80 1012.86 1012.94 1013.05 1013.20 1013.37 1013.55 1013.73 1013.88 1014.01 1014.10 1014.16 1014.19 1014.18 1014.13 1014.05 1013.93 1013.78 1013.59 1013.38 1013.16 1012.95 1012.75 1012.57 1012.41 1012.26 1012.09 1011.90 1011.66 1011.37 1011.02 1010.63 1010.22 1009.82 1009.46 1009.17
1010.94 1011.20 1011.46 1011.68 1011.87 1012.01 1012.13 1012.24 1012.36 1012.50 1012.66 1012.85 1013.05 1013.26 1013.45 1013.62 1013.76 1013.88 1013.96 1014.01 1014.02 1014.00 1013.93 1013.82 1013.68 1013.49 1013.29 1013.07 1012.86 1012.67 1012.49 1012.33 1012.18 1012.02 1011.83 1011.59 1011.30 1010.95 1010.56 1010.15 1009.75 1009.38 1009.07
1010.54 1010.72 1010.90 1011.06 1011.20 1011.34 1011.48 1011.64 1011.81 1012.01 1012.24 1012.47 1012.71 1012.93 1013.14 1013.32 1013.47 1013.60 1013.70 1013.76 1013.79 1013.78 1013.73 1013.64 1013.49 1013.31 1013.11 1012.90 1012.69 1012.50 1012.33 1012.18 1012.04 1011.90 1011.72 1011.50 1011.23 1010.90 1010.52 1010.12 1009.71 1009.33 1009.00
1010.07 1010.18 1010.30 1010.41 1010.53 1010.67 1010.84 1011.03 1011.26 1011.52 1011.79 1012.07 1012.33 1012.57 1012.78 1012.97 1013.13 1013.25 1013.36 1013.43 1013.47 1013.47 1013.42 1013.33 1013.19 1013.01 1012.81 1012.60 1012.39 1012.21 1012.05 1011.92 1011.80 1011.68 1011.54 1011.36 1011.12 1010.82 1010.47 1010.09 1009.68 1009.30 1008.95
1009.52 1009.61 1009.69 1009.79 1009.90 1010.06 1010.25 1010.49 1010.76 1011.06 1011.37 1011.67 1011.94 1012.18 1012.40 1012.57 1012.72 1012.84 1012.94 1013.01 1013.05 1013.04 1013.00 1012.90 1012.76 1012.57 1012.37 1012.15 1011.95 1011.78 1011.63 1011.53 1011.44 1011.36 1011.27 1011.13 1010.95 1010.70 1010.39 1010.03 1009.65 1009.26 1008.89
1008.94 1009.04 1009.13 1009.23 1009.37 1009.55 1009.78 1010.05 1010.36 1010.68 1011.00 1011.30 1011.57 1011.80 1012.00 1012.16 1012.28 1012.39 1012.47 1012.53 1012.55 1012.54 1012.49 1012.38 1012.22 1012.03 1011.82 1011.60 1011.40 1011.23 1011.11 1011.03 1010.98 1010.95 1010.91 1010.84 1010.71 1010.53 1010.27 1009.95 1009.59 1009.21 1008.84
1008.39 1008.52 1008.65 1008.80 1008.98 1009.20 1009.46 1009.75 1010.07 1010.40 1010.71 1011.00 1011.25 1011.45 1011.62 1011.76 1011.86 1011.95 1012.01 1012.06 1012.07 1012.04 1011.96 1011.83 1011.66 1011.45 1011.23 1011.00 1010.80 1010.64 1010.53 1010.48 1010.47 1010.48 1010.50 1010.49 1010.43 1010.30 1010.10 1009.83 1009.51 1009.14 1008.77
1007.90 1008.10 1008.30 1008.51 1008.74 1009.00 1009.29 1009.61 1009.93 1010.24 1010.53 1010.78 1011.00 1011.18 1011.32 1011.43 1011.52 1011.59 1011.64 1011.67 1011.66 1011.61 1011.51 1011.36 1011.17 1010.94 1010.69 1010.45 1010.24 1010.08 1009.98 1009.95 1009.97 1010.02 1010.08 1010.13 1010.12 1010.06 1009.91 1009.69 1009.40 1009.06 1008.69
1007.52 1007.81 1008.08 1008.37 1008.66 1008.96 1009.28 1009.59 1009.90 1010.19 1010.45 1010.67 1010.85 1011.00 1011.13 1011.22 1011.31 1011.37 1011.42 1011.44 1011.42 1011.36 1011.24 1011.06 1010.84 1010.58 1010.30 1010.04 1009.82 1009.65 1009.55 1009.52 1009.55 1009.63 1009.72 1009.80 1009.84 1009.81 1009.71 1009.53 1009.27 1008.96 1008.61
1007.25 1007.63 1008.00 1008.35 1008.70 1009.05 1009.38 1009.69 1009.97 1010.23 1010.46 1010.65 1010.81 1010.94 1011.06 1011.17 1011.26 1011.34 1011.40 1011.43 1011.41 1011.33 1011.19 1010.99 1010.74 1010.45 1010.14 1009.85 1009.60 1009.41 1009.30 1009.26 1009.29 1009.37 1009.47 1009.56 1009.62 1009.62 1009.54 1009.39 1009.16 1008.86 1008.52
1007.08 1007.55 1008.00 1008.43 1008.83 1009.21 1009.54 1009.85 1010.11 1010.34 1010.54 1010.71 1010.86 1011.00 1011.14 1011.27 1011.40 1011.51 1011.60 1011.65 1011.64 1011.56 1011.41 1011.18 1010.90 1010.58 1010.24 1009.92 1009.64 1009.43 1009.28 1009.22 1009.23 1009.29 1009.38 1009.47 1009.52 1009.53 1009.46 1009.31 1009.09 1008.81 1008.48
1006.96 1007.52 1008.05 1008.55 1008.99 1009.39 1009.73 1010.02 1010.27 1010.48 1010.66 1010.83 1010.99 1011.16 1011.34 1011.52 1011.70 1011.86 1011.99 1012.07 1012.08 1012.00 1011.85 1011.61 1011.31 1010.96 1010.60 1010.25 1009.94 1009.70 1009.53 1009.44 1009.42 1009.45 1009.50 1009.56 1009.59 1009.58 1009.50 1009.35 1009.13 1008.85 1008.53
1006.85 1007.49 1008.10 1008.65 1009.14 1009.55 1009.90 1010.18 1010.42 1010.62 1010.81 1010.99 1011.18 1011.40 1011.63 1011.87 1012.11 1012.33 1012.51 1012.63 1012.66 1012.60 1012.45 1012.20 1011.89 1011.53 1011.15 1010.79 1010.47 1010.21 1010.02 1009.90 1009.85 1009.84 1009.86 1009.88 1009.87 1009.82 1009.72 1009.55 1009.32 1009.04 1008.72
Thickness
5709 5707 5704 5701 5697 5693 5689 5685 5681 5679 5676 5673 5670 5667 5665 5665 5665 5664 5664 5664 5665 5666 5667 5668 5670 5672 5674 5677 5680 5684 5686 5689 5694 5696 5698 5704 5710 5714 5718 5722 5725 5728 5731
5706 5705 5703 5699 5696 5692 5688 5684 5681 5678 5675 5672 5669 5666 5664 5663 5662 5662 5662 5662 5662 5662 5663 5664 5665 5667 5669 5671 5674 5677 5680 5683 5688 5689 5690 5692 5698 5706 5712 5716 5719 5723 5726
5706 5704 5701 5698 5695 5691 5688 5685 5681 5678 5675 5672 5669 5667 5664 5662 5660 5659 5659 5659 5659 5659 5659 5660 5661 5662 5664 5666 5668 5671 5674 5676 5681 5685 5685 5685 5687 5694 5702 5708 5713 5717 5720
5708 5704 5701 5698 5695 5693 5689 5685 5682 5678 5675 5672 5668 5665 5661 5658 5657 5655 5655 5656 5656 5656 5656 5656 5657 5658 5659 5661 5664 5667 5669 5671 5673 5677 5682 5684 5687 5686 5690 5698 5705 5710 5714
5709 5706 5703 5700 5698 5694 5690 5686 5682 5679 5676 5672 5669 5665 5661 5658 5656 5655 5654 5654 5654 5653 5653 5653 5653 5654 5655 5657 5659 5662 5664 5667 5669 5671 5674 5677 5680 5683 5684 5686 5693 5700 5707
5711 5708 5705 5702 5698 5695 5691 5687 5682 5679 5676 5672 5669 5665 5662 5659 5657 5655 5653 5651 5651 5651 5651 5651 5651 5651 5652 5654 5656 5658 5660 5662 5665 5667 5669 5671 5672 5675 5678 5679 5684 5690 5698
5711 5707 5704 5701 5698 5695 5691 5687 5683 5679 5676 5673 5670 5666 5663 5660 5657 5654 5652 5650 5649 5649 5649 5649 5649 5649 5650 5652 5653 5655 5656 5658 5660 5662 5665 5667 5669 5672 5673 5674 5677 5681 5689
5712 5709 5706 5703 5699 5696 5692 5688 5684 5680 5677 5674 5671 5668 5664 5661 5658 5655 5653 5650 5649 5648 5649 5648 5649 5649 5649 5651 5651 5652 5653 5655 5657 5659 5661 5663 5665 5667 5669 5671 5672 5673 5679
5714 5711 5708 5705 5701 5697 5694 5690 5686 5682 5679 5676 5672 5669 5665 5662 5659 5656 5654 5652 5650 5650 5649 5649 5649 5649 5649 5649 5649 5649 5650 5652 5653 5655 5657 5658 5661 5663 5664 5666 5668 5669 5670
5715 5712 5709 5706 5703 5700 5696 5692 5688 5684 5681 5677 5673 5671 5667 5663 5660 5657 5655 5653 5651 5650 5649 5648 5648 5648 5648 5648 5648 5648 5649 5649 5650 5652 5653 5654 5656 5658 5659 5661 5663 5666 5667
5717 5714 5712 5709 5705 5701 5697 5693 5689 5686 5682 5678 5675 5671 5668 5665 5662 5659 5656 5654 5652 5651 5649 5648 5648 5647 5647 5647 5646 5646 5647 5647 5648 5649 5650 5651 5652 5653 5654 5655 5657 5660 5663
5720 5717 5714 5709 5705 5702 5699 5695 5691 5687 5684 5680 5676 5672 5669 5666 5663 5660 5657 5655 5653 5652 5650 5649 5648 5647 5647 5646 5646 5645 5645 5645 5645 5645 5646 5647 5648 5648 5649 5650 5652 5654 5657
5721 5717 5713 5709 5706 5703 5700 5697 5693 5690 5686 5682 5677 5674 5670 5667 5664 5661 5659 5656 5654 5652 5651 5649 5648 5647 5646 5646 5645 5644 5644 5643 5643 5643 5643 5643 5643 5644 5644 5645 5647 5649 5652
5721 5718 5713 5711 5708 5705 5702 5699 5695 5692 5688 5683 5679 5675 5671 5668 5665 5662 5660 5657 5655 5653 5651 5650 5648 5647 5646 5645 5644 5643 5643 5642 5642 5641 5641 5641 5640 5640 5640 5641 5642 5644 5646
5722 5720 5716 5713 5710 5706 5704 5701 5697 5694 5690 5685 5680 5677 5673 5670 5666 5663 5661 5658 5656 5654 5652 5650 5649 5648 5647 5646 5645 5643 5643 5641 5640 5640 5640 5639 5640 5640 5639 5639 5639 5640 5641
5725 5723 5720 5716 5712 5709 5706 5703 5699 5696 5691 5686 5682 5679 5675 5671 5668 5665 5662 5659 5657 5655 5653 5651 5649 5648 5649 5649 5648 5645 5643 5641 5639 5638 5638 5638 5638 5638 5638 5638 5638 5638 5638
5728 5725 5723 5720 5717 5713 5710 5705 5702 5697 5692 5688 5684 5680 5676 5672 5669 5666 5663 5660 5657 5655 5653 5651 5650 5649 5649 5649 5648 5647 5643 5641 5638 5637 5636 5636 5636 5635 5635 5635 5636 5636 5636
5731 5729 5726 5722 5719 5716 5712 5708 5702 5697 5693 5689 5685 5681 5677 5673 5670 5666 5663 5660 5658 5655 5653 5652 5650 5649 5649 5650 5649 5647 5643 5640 5638 5636 5635 5633 5633 5633 5633 5632 5632 5632 5632
5735 5732 5729 5725 5721 5716 5712 5707 5701 5697 5692 5689 5686 5682 5678 5674 5670 5667 5664 5661 5658 5656 5654 5652 5651 5649 5649 5650 5648 5647 5642 5639 5638 5636 5635 5633 5632 5633 5632 5630 5629 5630 5630
5736 5732 5728 5724 5719 5716 5711 5705 5700 5695 5692 5690 5687 5683 5679 5675 5671 5668 5665 5662 5659 5656 5655 5653 5651 5650 5648 5649 5648 5646 5642 5638 5637 5636 5635 5634 5633 5632 5631 5629 5628 5628 5629
5734 5731 5726 5721 5718 5714 5709 5703 5699 5696 5695 5691 5687 5683 5679 5675 5672 5668 5665 5662 5659 5656 5654 5652 5651 5650 5649 5648 5648 5646 5641 5638 5636 5634 5633 5632 5632 5631 5631 5629 5627 5627 5628
5730 5726 5722 5718 5714 5711 5707 5701 5697 5697 5693 5689 5685 5681 5678 5674 5672 5667 5664 5660 5657 5654 5652 5650 5650 5649 5648 5647 5646 5645 5642 5639 5635 5633 5631 5630 5631 5630 5629 5628 5628 5628 5628
5726 5722 5718 5713 5709 5707 5704 5699 5697 5694 5690 5686 5682 5678 5675 5671 5668 5665 5661 5658 5655 5652 5650 5648 5646 5646 5646 5645 5644 5643 5641 5639 5634 5632 5631 5630 5628 5627 5626 5625 5625 5625 5624
5721 5717 5713 5708 5704 5701 5699 5697 5694 5691 5686 5682 5678 5674 5670 5667 5664 5661 5658 5654 5651 5648 5647 5645 5643 5642 5642 5641 5640 5638 5636 5635 5632 5629 5627 5626 5624 5622 5621 5621 5620 5620 5619
5716 5712 5709 5704 5700 5697 5694 5692 5689 5686 5681 5677 5673 5669 5665 5662 5658 5655 5651 5649 5646 5644 5642 5640 5638 5637 5637 5638 5637 5634 5632 5629 5627 5624 5621 5619 5617 5616 5615 5615 5615 5615 5615
5710 5706 5702 5698 5694 5691 5688 5686 5684 5681 5676 5671 5666 5662 5659 5655 5652 5648 5644 5642 5639 5638 5637 5635 5633 5632 5632 5632 5632 5630 5628 5625 5623 5618 5614 5611 5609 5608 5607 5607 5607 5608 5608